Regional Weather Roundup
Issued by NWS Northern Indiana

Home | Current Version | Previous Version | Graphics & Text | Print | Product List | Glossary On
Versions: 1 2 3 4 5 6 7 8 9 10 11 12 13 14 15 16 17 18 19 20 21 22 23 24 25 26 27 28 29 30 31 32 33 34 35 36 37 38 39 40 41 42 43 44 45 46 47 48 49 50
000
ASUS43 KIWX 221600
RWRIWX

KIWX WEATHER ROUNDUP
NATIONAL WEATHER SERVICE NORTHERN INDIANA
1200 PM EDT MON MAY 22 2017

NOTE: "FAIR" INDICATES FEW OR NO CLOUDS BELOW 12,000 FEET WITH NO
SIGNIFICANT WEATHER AND/OR OBSTRUCTIONS TO VISIBILITY.

* THESE STATIONS ARE NOT UNDER NWS QUALITY CONTROL. THEY ALSO MAY NOT
  REPORT WEATHER SUCH AS PRECIPITATION OR FOG.

INZ001>027-221700-
NORTHERN INDIANA

CITY           SKY/WX    TMP DP  RH WIND       PRES   REMARKS
GARY*          SUNNY     64  41  42 SW12      30.05F
SOUTH BEND     SUNNY     60  44  55 SW12      30.05F
ELKHART*       SUNNY     63  43  48 W13       30.05
GOSHEN         SUNNY     60  43  53 W17       30.06R
MONTICELLO*    SUNNY     62  44  53 W7        30.07F
FORT WAYNE     CLOUDY    62  46  55 W10G20    30.07F
PERU/GRISSOM   SUNNY     62  46  57 W9        30.08F

$$
INZ028>050-221700-
CENTRAL INDIANA

CITY           SKY/WX    TMP DP  RH WIND       PRES   REMARKS
LAFAYETTE      SUNNY     63  46  54 VRB6      30.09F
KOKOMO*        SUNNY     62  46  55 W8        30.10F
MUNCIE*        CLOUDY    61  45  55 W7        30.10F
INDIANAPOLIS   PTSUNNY   62  46  55 W5        30.11F

$$
MIZ043>046-050>051-056>058-064>065-071>073-077>080-221700-
SOUTHWEST LOWER MICHIGAN

CITY           SKY/WX    TMP DP  RH WIND       PRES   REMARKS
BATTLE CREEK   SUNNY     62  42  47 W15G26    30.01R
BENTON HARBOR    N/A     59  41  51 MISG      30.03F
COLDWATER*     SUNNY     61  44  53 W16       30.03S
HILLSDALE*     MOSUNNY   59  41  51 W12G17    30.02S
HOLLAND        SUNNY     57  44  62 W18       29.99F
GRAND RAPIDS   MOSUNNY   59  43  55 W18G26    29.97S
KALAMAZOO      SUNNY     61  40  45 W16G23    30.02S
STURGIS*       SUNNY     60  45  56 W12G20    30.04R
THREE RIVERS*  FAIR      62  42  48 W8        30.04R

$$
OHZ001>008-015>018-024>025-221700-
NORTHWEST OHIO

CITY           SKY/WX    TMP DP  RH WIND       PRES   REMARKS
DEFIANCE       CLOUDY    60  40  47 SW10G20   30.06S
FINDLAY        PTSUNNY   61  44  53 W16G24    30.07F
TOLEDO EXPRESS MOSUNNY   61  43  51 W15G24    30.05R
TOLEDO METCALF MOSUNNY   60  44  55 SW15      30.06S
LIMA           SUNNY     60  47  61 W14       30.08F

$$
AND FOR LAKE MICHIGAN COASTAL AND OPEN LAKE BUOY OBSERVATIONS

STATION/POSITION TEMP    WIND        PRES    VSBY  WAVE
                 AIR SEA DIR/SP/G                  HT/PER
                 (F)     (DEG/KT/KT) (MB)    (MI)  (FT/S)
CALUMET HARBOR    60     200/  6/ 15 1016.4F
MICHIGAN CITY     56     240/ 10/ 11   N/A
BURNS HARBOR      60     230/  7/ 13 1017.9F
SOUTH LAKE BUOY   47 44  230/ 12/ 14 1016.1          2/ 4
4 MI NW BRIDGMAN  53 54  240/ 12/ 16 1017.7          3/ 4
MICHIGAN CITY     53 52  230/  8/ 10   N/A           2/ 3

$$
&&



USA.gov is the U.S. government's official web portal to all federal, state and local government web resources and services.